[[{"header":{"parameterUnit":"m.s-1","parameterCategory":1,"la1":30.2991,"la2":30.254,"lo1":-89.0895,"lo2":-89.0444,"dy":0.0017,"dx":0.0017,"nx":28,"ny":28,"refTime":"2024-07-08T03:00:00:Z","depth":0,"parameterNumber":2,"parameterNumberName":"U-component_of_WINDS"},"data":[0,0,0,0,0,0,0,0,0,0,0,0,0,0,0,0,0,0,0,0,0,0,0,0,0,0,0,0,0,0,0,0,0,0,0,0,0,0,0,0,0,0,0,0,0,0,0,0,0,0,0,0,0,0,0,0,0,0,5.3633,5.3634,0,5.3774,5.3775,5.3777,5.3759,5.3757,5.3754,5.3752,5.3899,5.3905,5.3911,0,0,0,0,0,0,0,0,0,0,0,0,0,5.3348,5.3353,5.3633,5.3634,5.3636,5.3774,5.3775,5.3777,5.3759,5.3757,5.3754,5.3751,5.3897,5.3904,5.3912,0,0,0,0,0,0,0,0,0,0,0,0,0,5.3479,5.3355,5.3632,5.3644,5.3646,5.3773,5.3776,5.3778,5.376,5.3756,5.3753,5.375,5.3895,5.3904,5.3913,5.4038,0,0,5.394,5.3944,0,0,0,0,0,0,0,0,5.3471,5.3489,5.364,5.3643,5.3646,5.3745,5.3729,5.3865,5.3761,5.3717,5.3752,5.3748,5.3851,5.3863,5.3898,5.4045,5.4051,5.3941,5.3947,5.3951,5.3953,0,0,0,0,0,0,0,5.3462,5.3483,5.3688,5.3642,5.3646,5.3642,5.3657,5.3755,5.3802,5.372,5.3719,5.3736,5.3852,5.3889,5.3901,5.4053,5.3941,5.3949,5.3955,5.3958,5.4309,5.4312,0,0,0,0,0,0,5.345,5.3476,5.3684,5.3693,5.3548,5.365,5.3666,5.3717,5.38,5.381,5.3739,5.3735,5.3875,5.389,5.3906,5.4056,5.3951,5.3959,5.3964,5.4305,5.4309,5.4314,0,0,0,0,0,0,5.3444,5.3469,5.3678,5.3584,5.361,5.3658,5.3715,5.3721,5.3758,5.3815,5.3823,5.3768,5.3873,5.3893,5.4005,5.4061,5.3963,5.3971,5.43,5.4306,5.4311,5.436,0,0,0,0,0,0,5.3436,5.3467,5.3515,5.3585,5.3615,5.3775,5.3719,5.3727,5.3774,5.377,5.3844,5.3853,5.3872,5.3991,5.4014,5.4072,5.3979,5.4295,5.4303,5.431,5.4353,5.4366,5.4378,0,0,0,0,0,5.3426,5.3524,5.3518,5.3543,5.3676,5.3778,5.3795,5.3814,5.3779,5.3827,5.3863,5.3851,5.4052,5.4003,5.4028,5.409,5.4292,5.4301,5.4309,5.4348,5.4364,5.4377,0,0,0,0,0,0,5.3461,5.3533,5.3527,5.3651,5.3708,5.3775,5.3837,5.3831,5.39,5.3893,5.3914,5.3931,5.4043,5.4078,5.4022,5.4215,5.4167,5.4181,5.4188,5.4203,5.4215,5.4204,5.3986,0,0,0,0,0,5.3482,5.3558,5.3618,5.3721,5.375,5.3789,5.3833,5.3843,5.3903,5.3928,5.3972,5.4031,5.4108,5.4158,5.4231,5.4358,5.4373,5.4413,5.4425,5.4435,5.4447,5.4514,5.4532,5.4342,5.4342,5.4342,0,0,5.3529,5.3578,5.3625,5.3729,5.3775,5.3853,5.3809,5.3894,5.3952,5.3941,5.4048,5.4082,5.415,5.4269,5.4324,5.4302,5.4503,5.4446,5.4454,5.446,5.4525,5.4543,5.4559,5.4348,5.4347,5.4346,0,0,5.3652,5.3698,5.3787,5.3833,5.3902,5.3927,5.3948,5.4016,5.4037,5.4145,5.4138,5.4207,5.4339,5.4387,5.4429,5.4568,5.4559,5.4592,5.4655,5.4721,5.4736,5.4749,5.4797,5.4814,5.4604,5.4604,5.4604,0,5.3701,5.3817,5.3834,5.3919,5.3965,5.3958,5.4048,5.4092,5.4182,5.4214,5.4188,5.4351,5.4397,5.4525,5.4559,5.4594,5.4618,5.4583,5.4732,5.4746,5.4758,5.4804,5.4822,5.4607,5.4607,5.4606,5.4606,0,5.3873,5.3953,5.4018,5.4103,5.4156,5.4244,5.4274,5.4326,5.433,5.4357,5.4466,5.452,5.4603,5.4635,5.4641,5.4765,5.4748,5.4727,5.4679,5.4779,5.4823,5.4841,5.4612,5.4611,5.461,5.4609,0,0,5.4022,5.4114,5.4137,5.4175,5.4249,5.4312,5.4399,5.4479,5.4522,5.4585,5.4657,5.4768,5.4748,5.4795,5.4806,5.4864,5.4969,5.4835,5.4837,5.4857,5.5106,5.512,5.514,5.4963,5.4967,5.497,5.5099,0,5.4151,5.4303,5.432,5.4456,5.453,5.4523,5.4599,5.4653,5.468,5.4747,5.4778,5.4855,5.4824,5.4852,5.4909,5.4944,5.5019,5.4935,5.503,5.5033,5.5011,5.5163,5.5179,5.5299,5.5117,5.512,5.5122,0,5.4322,5.4386,5.4529,5.4591,5.4623,5.4691,5.4764,5.4829,5.4889,5.4905,5.4957,5.496,5.5049,5.4999,5.5121,5.5064,5.5104,5.5127,5.5132,5.514,5.5082,5.5174,5.5338,5.5355,5.5149,5.5147,5.5145,0,5.4413,5.4537,5.4637,5.467,5.4746,5.4793,5.4827,5.4884,5.4931,5.4996,5.5026,5.5101,5.5142,5.52,5.5223,5.5184,5.5343,5.5295,5.5358,5.5357,5.5391,5.5388,5.5562,5.542,5.5419,5.5419,5.5419,0,5.4554,5.4641,5.4679,5.4741,5.4837,5.4857,5.4952,5.4984,5.5035,5.5103,5.5103,5.5166,5.5194,5.5262,5.5281,5.5378,5.5397,5.5412,5.5415,5.5411,5.5408,5.5436,5.5428,5.5424,5.5423,5.5422,5.5421,0,5.4672,5.4701,5.481,5.4873,5.489,5.4959,5.5012,5.5072,5.5098,5.5184,5.5205,5.5247,5.5326,5.5355,5.5453,5.5465,5.5577,5.5575,5.5556,5.5557,5.5617,5.561,5.5813,5.584,5.5682,5.5684,5.5685,0,5.476,5.4826,5.4895,5.494,5.4975,5.5047,5.5094,5.5116,5.5164,5.5237,5.5288,5.5367,5.5431,5.5558,5.5597,5.5672,5.567,5.5736,5.5681,5.5674,5.5669,5.5664,5.5669,5.5746,5.5747,5.5749,5.575,0,5.491,5.4921,5.4988,5.506,5.5115,5.5173,5.523,5.5266,5.5296,5.5351,5.5432,5.5481,5.558,5.5657,5.5733,5.5768,5.5764,5.5767,5.5785,5.578,5.5765,5.5772,5.5582,5.5762,5.5761,5.576,5.5759,5.5759,5.5015,5.5072,5.5129,5.5203,5.5248,5.53,5.5358,5.5391,5.5458,5.5539,5.5548,5.5634,5.5692,5.5793,5.5831,5.5899,5.5881,5.5908,5.5914,5.592,5.5923,5.5756,5.5913,5.5913,5.5913,5.5912,5.5912,0,5.5163,5.5199,5.5267,5.5345,5.5403,5.5393,5.5455,5.5504,5.5579,5.5633,5.5696,5.5788,5.5863,5.5907,5.5983,5.6028,5.6028,5.6047,5.6043,5.6051,5.5936,5.5912,5.6046,5.6046,5.6046,5.6046,5.6046,5.6046,5.5247,5.5344,5.5361,5.5479,5.5515,5.5598,5.5634,5.5681,5.5724,5.5826,5.5888,5.5916,5.5966,5.6045,5.6113,5.6124,5.6151,5.6172,5.6181,5.6073,5.6059,5.6046,5.6023,5.6178,5.6178,5.629,5.6291,5.6291]},{"header":{"parameterUnit":"m.s-1","parameterCategory":1,"la1":30.2991,"la2":30.254,"lo1":-89.0895,"lo2":-89.0444,"dy":0.0017,"dx":0.0017,"nx":28,"ny":28,"refTime":"2024-07-08T03:00:00:Z","depth":0,"parameterNumber":3,"parameterNumberName":"V-component_of_WINDS"},"data":[0,0,0,0,0,0,0,0,0,0,0,0,0,0,0,0,0,0,0,0,0,0,0,0,0,0,0,0,0,0,0,0,0,0,0,0,0,0,0,0,0,0,0,0,0,0,0,0,0,0,0,0,0,0,0,0,0,0,4.0764,4.0765,0,4.0846,4.0847,4.0848,4.0842,4.0841,4.0839,4.0838,4.0924,4.0927,4.093,0,0,0,0,0,0,0,0,0,0,0,0,0,4.0601,4.0604,4.0764,4.0765,4.0766,4.0846,4.0847,4.0848,4.0842,4.0841,4.0839,4.0838,4.0922,4.0926,4.0931,0,0,0,0,0,0,0,0,0,0,0,0,0,4.0676,4.0605,4.0763,4.0772,4.0774,4.0846,4.0847,4.0849,4.0842,4.0841,4.0839,4.0837,4.0921,4.0926,4.0931,4.1,0,0,4.0947,4.0949,0,0,0,0,0,0,0,0,4.0672,4.0682,4.077,4.0772,4.0774,4.0832,4.0821,4.0899,4.0843,4.0816,4.0838,4.0836,4.0895,4.0902,4.0921,4.1004,4.1008,4.0947,4.095,4.0953,4.0954,0,0,0,0,0,0,0,4.0667,4.0679,4.0796,4.0771,4.0774,4.0772,4.0781,4.0836,4.0865,4.0819,4.0818,4.0828,4.0895,4.0916,4.0923,4.1009,4.0947,4.0952,4.0955,4.0957,4.1152,4.1154,0,0,0,0,0,0,4.066,4.0675,4.0794,4.0799,4.0717,4.0777,4.0786,4.0815,4.0864,4.087,4.083,4.0828,4.0909,4.0917,4.0926,4.101,4.0953,4.0957,4.096,4.115,4.1152,4.1155,0,0,0,0,0,0,4.0656,4.067,4.079,4.0737,4.0752,4.0781,4.0814,4.0818,4.0839,4.0873,4.0878,4.0846,4.0907,4.0919,4.0982,4.1013,4.096,4.0964,4.1147,4.1151,4.1153,4.1178,0,0,0,0,0,0,4.0652,4.0669,4.0695,4.0737,4.0755,4.0844,4.0816,4.0821,4.0848,4.0846,4.0889,4.0895,4.0907,4.0974,4.0987,4.1019,4.0968,4.1145,4.1149,4.1152,4.1175,4.1182,4.1188,0,0,0,0,0,4.0646,4.0699,4.0697,4.0711,4.0788,4.0846,4.0856,4.0869,4.085,4.0877,4.0899,4.0893,4.1007,4.098,4.0995,4.1029,4.1143,4.1148,4.1152,4.1172,4.1181,4.1188,0,0,0,0,0,0,4.0661,4.0705,4.0703,4.0771,4.0805,4.0845,4.0879,4.0878,4.0917,4.0914,4.0928,4.0938,4.1001,4.1021,4.099,4.1098,4.1073,4.108,4.1083,4.1091,4.1098,4.1092,4.0973,0,0,0,0,0,4.0672,4.0715,4.0752,4.0809,4.0826,4.085,4.0875,4.0882,4.0917,4.0932,4.0958,4.0993,4.1036,4.1065,4.1107,4.1178,4.1187,4.1208,4.1215,4.122,4.1227,4.1266,4.1276,4.117,4.117,4.117,0,0,4.0696,4.0725,4.0752,4.0812,4.0839,4.0884,4.0862,4.091,4.0943,4.0939,4.1,4.102,4.106,4.1127,4.1158,4.1146,4.1258,4.1226,4.123,4.1234,4.1272,4.1282,4.1291,4.1173,4.1173,4.1172,0,0,4.0762,4.0789,4.0839,4.0867,4.0907,4.0923,4.0935,4.0975,4.0989,4.105,4.1048,4.1087,4.1162,4.1191,4.1215,4.1291,4.1288,4.1305,4.1339,4.1377,4.1385,4.1393,4.1421,4.143,4.1311,4.1311,4.1311,0,4.0787,4.0854,4.0865,4.0914,4.0941,4.0939,4.099,4.1016,4.1069,4.1088,4.1073,4.1167,4.1194,4.1267,4.1286,4.1305,4.132,4.13,4.1383,4.1391,4.1398,4.1425,4.1435,4.1313,4.1313,4.1313,4.1312,0,4.0882,4.0928,4.0964,4.1015,4.1046,4.1095,4.1115,4.1145,4.1149,4.1165,4.1228,4.1259,4.1308,4.1326,4.133,4.14,4.1391,4.138,4.1355,4.141,4.1435,4.1445,4.1316,4.1315,4.1314,4.1314,0,0,4.096,4.1017,4.103,4.1053,4.1097,4.1134,4.1183,4.123,4.1256,4.1292,4.1334,4.1397,4.1387,4.1414,4.1422,4.1455,4.1514,4.144,4.1441,4.1453,4.1593,4.1602,4.1613,4.1512,4.1514,4.1515,4.159,0,4.1031,4.1119,4.1131,4.1209,4.1252,4.1251,4.1294,4.1326,4.1343,4.1382,4.1401,4.1446,4.1429,4.1446,4.1478,4.15,4.1542,4.1494,4.1551,4.1553,4.1542,4.1626,4.1636,4.1704,4.16,4.1601,4.1602,0,4.1126,4.1165,4.1247,4.1285,4.1304,4.1343,4.1387,4.1424,4.1461,4.1471,4.1501,4.1505,4.1556,4.1528,4.1599,4.1566,4.159,4.1604,4.1607,4.1613,4.1582,4.1635,4.1727,4.1737,4.1618,4.1617,4.1616,0,4.1175,4.1248,4.1306,4.1326,4.1373,4.14,4.1421,4.1455,4.1483,4.1521,4.1539,4.1583,4.1608,4.1642,4.1657,4.1635,4.1727,4.17,4.1737,4.1737,4.1757,4.1756,4.1854,4.1772,4.1771,4.1771,4.1771,0,4.1254,4.1304,4.1329,4.1365,4.1421,4.1435,4.149,4.151,4.1541,4.1581,4.1582,4.162,4.1637,4.1677,4.1689,4.1747,4.1757,4.1767,4.177,4.1767,4.1766,4.1784,4.1779,4.1774,4.1773,4.1773,4.1772,0,4.1318,4.1337,4.1401,4.144,4.1451,4.1491,4.1524,4.1559,4.1576,4.1626,4.1639,4.1665,4.1712,4.1731,4.1788,4.1796,4.1863,4.1861,4.185,4.1851,4.1887,4.1884,4.2001,4.2017,4.1923,4.1924,4.1925,0,4.1367,4.1406,4.1449,4.1476,4.1497,4.1541,4.1569,4.1583,4.1612,4.1657,4.1686,4.1734,4.1772,4.1848,4.1872,4.1916,4.1916,4.1954,4.1923,4.1919,4.1917,4.1915,4.1919,4.196,4.1961,4.1962,4.1963,0,4.1452,4.146,4.15,4.1544,4.1577,4.1613,4.1647,4.1669,4.1688,4.1721,4.177,4.1799,4.1858,4.1905,4.1951,4.1972,4.1971,4.1972,4.1983,4.1981,4.1974,4.1979,4.1867,4.197,4.1969,4.1968,4.1968,4.1968,4.1511,4.1545,4.1581,4.1626,4.1653,4.1685,4.172,4.1741,4.1782,4.1831,4.1837,4.1889,4.1924,4.1985,4.2008,4.2049,4.2039,4.2055,4.2059,4.2063,4.2066,4.1966,4.2057,4.2057,4.2057,4.2057,4.2057,0,4.1596,4.1619,4.166,4.1708,4.1744,4.1739,4.1777,4.1807,4.1853,4.1886,4.1923,4.1979,4.2025,4.2052,4.2098,4.2125,4.2126,4.2137,4.2135,4.214,4.2072,4.2058,4.2136,4.2136,4.2136,4.2136,4.2136,4.2136,4.1645,4.1703,4.1714,4.1786,4.1809,4.186,4.1882,4.1911,4.1938,4.2,4.2038,4.2055,4.2086,4.2134,4.2176,4.2182,4.2199,4.2211,4.2218,4.2153,4.2145,4.2137,4.2124,4.2215,4.2215,4.2283,4.2283,4.2284]}]]